Date String (YYYY-MM-DD hh:mm:ss) UTC,Instrument flags,absolute air pressure of the measurement (hPa),sample flow rate (lpm),inlet stack bypass flow (lpm),air temperature of the measurement (°C),ambient temperature measured by the external sensor (°C),aerosol sample conditioner tube jacket temperature (°C),OPC LED temperature (°C),internal box temperature (°C),relative humidity of the measurement (%),span deviation,mass concentration of particles derived from Lorenz-Mie calculation of OPC scattering (μg/m³),mass concentration of particles derived from Lorenz-Mie calculation of OPC scattering (μg/m³),mass concentration of particles derived from Lorenz-Mie calculation of OPC scattering (μg/m³)
DateTimeUTC,F1_M11,P_M11,Q1_M11,Q2_M11,T1_M11,T2_M11,T3_M11,T4_M11,T5_M11,U1_M11,ZSPAN_M11,X0_M11,X2_M11,X1_M11
2023-12-22 03:00:00,SystemResetWarning,0833.1,4.99,000.00,025.7,024.5,000.0,034.1,027.0,10.6,0000.0,0001.28,0000.89,0000.77
2023-12-22 03:01:00,SystemResetWarning,0833.2,4.98,000.00,025.7,024.5,000.0,034.1,027.0,10.6,0000.0,0001.22,0000.89,0000.77
2023-12-22 03:02:00,SystemResetWarning,0833.1,5.00,000.00,025.7,024.5,000.0,034.1,027.0,10.6,0000.0,0001.26,0000.90,0000.77
2023-12-22 03:03:00,SystemResetWarning,0833.3,5.02,000.00,025.7,024.5,000.0,034.1,027.0,10.6,0000.0,0001.18,0000.87,0000.75
2023-12-22 03:04:00,SystemResetWarning,0833.5,5.00,000.00,025.7,024.5,000.0,034.1,027.0,10.6,0000.0,0001.12,0000.84,0000.73
2023-12-22 03:05:00,SystemResetWarning,0833.2,4.99,000.00,025.6,024.5,000.0,034.1,027.0,10.6,0000.0,0001.12,0000.84,0000.73
2023-12-22 03:06:00,SystemResetWarning,0833.3,4.99,000.00,025.6,024.5,000.0,034.0,027.0,10.6,0000.0,0001.11,0000.84,0000.73
2023-12-22 03:07:00,SystemResetWarning,0833.3,5.00,000.00,025.6,024.5,000.0,034.0,027.0,10.6,0000.0,0001.08,0000.84,0000.73
2023-12-22 03:08:00,SystemResetWarning,0833.2,5.00,000.00,025.6,024.5,000.0,034.0,027.0,10.6,0000.0,0001.10,0000.84,0000.73
2023-12-22 03:09:00,SystemResetWarning,0833.3,5.01,000.00,025.6,024.5,000.0,034.0,027.0,10.6,0000.0,0001.18,0000.87,0000.72
2023-12-22 03:10:00,SystemResetWarning,0833.3,5.00,000.00,025.6,024.5,000.0,034.0,027.0,10.5,0000.0,0001.19,0000.88,0000.72
2023-12-22 03:11:00,SystemResetWarning,0833.0,5.01,000.00,025.6,024.5,000.0,034.0,027.0,10.5,0000.0,0001.18,0000.87,0000.71
2023-12-22 03:12:00,SystemResetWarning,0833.2,5.00,000.00,025.6,024.5,000.0,034.0,027.0,10.5,0000.0,0001.18,0000.87,0000.71
2023-12-22 03:13:00,SystemResetWarning,0833.0,4.99,000.00,025.6,024.5,000.0,034.0,027.0,10.5,0000.0,0001.17,0000.86,0000.71
2023-12-22 03:14:00,SystemResetWarning,0833.0,5.01,000.00,025.6,024.5,000.0,034.0,027.0,10.5,0000.0,0001.14,0000.86,0000.71
2023-12-22 03:15:00,SystemResetWarning,0833.1,5.01,000.00,025.6,024.5,000.0,034.0,027.0,10.6,0000.0,0001.17,0000.87,0000.71
2023-12-22 03:16:00,SystemResetWarning,0833.2,4.99,000.00,025.6,024.5,000.0,034.0,027.0,10.6,0000.0,0001.21,0000.87,0000.69
2023-12-22 03:17:00,SystemResetWarning,0833.4,4.99,000.00,025.6,024.5,000.0,034.0,027.0,10.6,0000.0,0001.30,0000.89,0000.68
2023-12-22 03:18:00,SystemResetWarning,0833.6,5.01,000.00,025.6,024.5,000.0,034.0,027.0,10.7,0000.0,0001.32,0000.89,0000.68
2023-12-22 03:19:00,SystemResetWarning,0833.4,5.00,000.00,025.6,024.5,000.0,034.0,027.0,10.6,0000.0,0001.27,0000.86,0000.67
2023-12-22 03:20:00,SystemResetWarning,0833.2,4.99,000.00,025.6,024.4,000.0,034.0,027.0,10.6,0000.0,0001.21,0000.85,0000.67
2023-12-22 03:21:00,SystemResetWarning,0832.9,4.99,000.00,025.6,024.4,000.0,034.0,026.9,10.7,0000.0,0001.21,0000.84,0000.68
2023-12-22 03:22:00,SystemResetWarning,0833.0,5.01,000.00,025.6,024.4,000.0,034.0,026.9,10.6,0000.0,0001.44,0000.90,0000.71
2023-12-22 03:23:00,SystemResetWarning,0833.0,5.00,000.00,025.6,024.4,000.0,034.0,026.9,10.6,0000.0,0001.60,0000.96,0000.72
2023-12-22 03:24:00,SystemResetWarning,0833.0,4.99,000.00,025.6,024.4,000.0,033.9,026.9,10.6,0000.0,0001.68,0000.99,0000.74
2023-12-22 03:25:00,SystemResetWarning,0832.9,4.99,000.00,025.6,024.4,000.0,033.9,027.0,10.6,0000.0,0001.71,0001.00,0000.74
2023-12-22 03:26:00,SystemResetWarning,0833.0,5.00,000.00,025.6,024.4,000.0,033.9,026.9,10.5,0000.0,0001.81,0001.04,0000.74
2023-12-22 03:27:00,SystemResetWarning,0833.0,5.01,000.00,025.6,024.4,000.0,033.9,026.9,10.5,0000.0,0001.85,0001.05,0000.75
2023-12-22 03:28:00,SystemResetWarning,0832.9,5.01,000.00,025.6,024.4,000.0,033.9,026.9,10.5,0000.0,0001.76,0001.03,0000.78
2023-12-22 03:29:00,SystemResetWarning,0833.0,5.00,000.00,025.6,024.4,000.0,033.9,026.9,10.5,0000.0,0001.77,0001.05,0000.79
2023-12-22 03:30:00,SystemResetWarning,0833.0,5.00,000.00,025.6,024.4,000.0,033.9,026.9,10.5,0000.0,0001.80,0001.06,0000.80
2023-12-22 03:31:00,SystemResetWarning,0833.0,5.00,000.00,025.6,024.4,000.0,033.9,026.9,10.5,0000.0,0001.88,0001.09,0000.82
2023-12-22 03:32:00,SystemResetWarning,0833.0,5.00,000.00,025.6,024.4,000.0,033.9,026.9,10.6,0000.0,0001.86,0001.08,0000.81
2023-12-22 03:33:00,SystemResetWarning,0833.0,5.00,000.00,025.5,024.4,000.0,033.9,026.9,10.6,0000.0,0001.64,0001.02,0000.78
2023-12-22 03:34:00,SystemResetWarning,0833.0,5.01,000.00,025.5,024.4,000.0,033.9,026.8,10.7,0000.0,0001.45,0000.95,0000.75
2023-12-22 03:35:00,SystemResetWarning,0833.0,5.02,000.00,025.5,024.4,000.0,033.9,026.8,10.7,0000.0,0001.33,0000.88,0000.72
2023-12-22 03:36:00,SystemResetWarning,0833.0,4.99,000.00,025.5,024.4,000.0,033.9,026.8,10.6,0000.0,0001.29,0000.86,0000.70
2023-12-22 03:37:00,SystemResetWarning,0833.0,4.99,000.00,025.5,024.4,000.0,033.9,026.8,10.6,0000.0,0001.24,0000.84,0000.69
2023-12-22 03:38:00,SystemResetWarning,0833.0,5.00,000.00,025.5,024.4,000.0,033.9,026.9,10.6,0000.0,0001.15,0000.81,0000.68
2023-12-22 03:39:00,SystemResetWarning,0833.0,5.02,000.00,025.5,024.4,000.0,033.9,026.9,10.6,0000.0,0001.13,0000.80,0000.67
2023-12-22 03:40:00,SystemResetWarning,0833.0,4.99,000.00,025.5,024.4,000.0,033.9,026.9,10.5,0000.0,0001.06,0000.77,0000.66
2023-12-22 03:41:00,SystemResetWarning,0833.0,4.99,000.00,025.5,024.3,000.0,033.9,026.9,10.5,0000.0,0001.06,0000.76,0000.64
2023-12-22 03:42:00,SystemResetWarning,0832.9,5.01,000.00,025.5,024.3,000.0,033.9,026.9,10.5,0000.0,0001.03,0000.73,0000.62
2023-12-22 03:43:00,SystemResetWarning,0833.2,5.00,000.00,025.5,024.3,000.0,033.8,026.8,10.6,0000.0,0001.12,0000.76,0000.62
2023-12-22 03:44:00,SystemResetWarning,0833.3,5.01,000.00,025.5,024.3,000.0,033.8,026.8,10.6,0000.0,0001.13,0000.76,0000.61
2023-12-22 03:45:00,SystemResetWarning,0833.3,5.00,000.00,025.4,024.3,000.0,033.8,026.8,10.5,0000.0,0001.17,0000.78,0000.61
2023-12-22 03:46:00,SystemResetWarning,0833.6,4.98,000.00,025.4,024.3,000.0,033.8,026.7,10.5,0000.0,0001.19,0000.79,0000.62
2023-12-22 03:47:00,SystemResetWarning,0833.1,4.99,000.00,025.4,024.3,000.0,033.8,026.7,10.6,0000.0,0001.18,0000.79,0000.62
2023-12-22 03:48:00,SystemResetWarning,0833.3,5.01,000.00,025.4,024.3,000.0,033.8,026.7,10.7,0000.0,0002.10,0000.80,0000.62
2023-12-22 03:49:00,SystemResetWarning,0833.2,5.00,000.00,025.4,024.3,000.0,033.8,026.7,10.7,0000.0,0002.24,0000.81,0000.63
2023-12-22 03:50:00,SystemResetWarning,0832.9,5.00,000.00,025.4,024.3,000.0,033.8,026.7,10.7,0000.0,0002.24,0000.82,0000.63
2023-12-22 03:51:00,SystemResetWarning,0832.9,5.01,000.00,025.4,024.3,000.0,033.8,026.7,10.6,0000.0,0002.24,0000.82,0000.63
2023-12-22 03:52:00,SystemResetWarning,0833.0,5.00,000.00,025.4,024.3,000.0,033.8,026.7,10.6,0000.0,0002.22,0000.82,0000.64
2023-12-22 03:53:00,SystemResetWarning,0833.0,4.99,000.00,025.4,024.3,000.0,033.8,026.7,10.6,0000.0,0002.23,0000.82,0000.64
2023-12-22 03:54:00,SystemResetWarning,0833.0,5.00,000.00,025.4,024.3,000.0,033.8,026.7,10.7,0000.0,0002.10,0000.78,0000.64
2023-12-22 03:55:00,SystemResetWarning,0832.9,5.00,000.00,025.4,024.3,000.0,033.8,026.7,10.7,0000.0,0002.13,0000.81,0000.67
2023-12-22 03:56:00,SystemResetWarning,0833.0,5.00,000.00,025.4,024.3,000.0,033.8,026.7,10.7,0000.0,0002.21,0000.87,0000.71
2023-12-22 03:57:00,SystemResetWarning,0833.0,5.00,000.00,025.4,024.3,000.0,033.8,026.7,10.8,0000.0,0002.25,0000.90,0000.73
2023-12-22 03:58:00,SystemResetWarning,0833.0,5.00,000.00,025.4,024.2,000.0,033.8,026.7,10.8,0000.0,0002.25,0000.90,0000.73
2023-12-22 03:59:00,SystemResetWarning,0833.0,5.01,000.00,025.4,024.2,000.0,033.8,026.7,10.8,0000.0,0001.36,0000.90,0000.75
